ECEMM LESI-LESA

Flight info

Callsign ECEMM
Flight time 0h 49m
Altitude 5000
Route VFR
Aircraft C172/L-SFG/C

Departure

Time 2026-04-17 08:21
Airport Rosinos de la Requejada Airfield (LESI)

Arrival

Time 2026-04-17 09:10
Airport Salamanca Airport (LESA)
Time Latitude Longitude Altitude Speed Heading
2026-04-17 08:10 42.10401 -6.52924 3372 ft 0 kts 158°
2026-04-17 08:15 42.10391 -6.52924 3380 ft 1 kts 196°
2026-04-17 08:15 42.10391 -6.52925 3379 ft 0 kts 198°
2026-04-17 08:17 42.10390 -6.52925 3379 ft 0 kts 197°
2026-04-17 08:17 42.10391 -6.52925 3379 ft 0 kts 197°
2026-04-17 08:17 42.10390 -6.52925 3379 ft 0 kts 197°
2026-04-17 08:18 42.10370 -6.52931 3368 ft 7 kts 183°
2026-04-17 08:18 42.10242 -6.52863 3359 ft 41 kts 157°
2026-04-17 08:18 42.09858 -6.52640 3349 ft 76 kts 157°
2026-04-17 08:19 42.09372 -6.52330 3497 ft 76 kts 153°
2026-04-17 08:19 42.08899 -6.51989 3636 ft 78 kts 152°
2026-04-17 08:19 42.08396 -6.51670 3742 ft 85 kts 162°
2026-04-17 08:19 42.07817 -6.51393 3842 ft 91 kts 162°
2026-04-17 08:20 42.07192 -6.51106 3884 ft 98 kts 163°
2026-04-17 08:20 42.06537 -6.50772 3902 ft 104 kts 154°
2026-04-17 08:20 42.05878 -6.50321 3909 ft 107 kts 154°
2026-04-17 08:20 42.05205 -6.49884 3929 ft 108 kts 156°
2026-04-17 08:21 42.04523 -6.49442 3949 ft 109 kts 150°
2026-04-17 08:21 42.03878 -6.48912 3966 ft 109 kts 150°
2026-04-17 08:21 42.03224 -6.48398 3969 ft 109 kts 150°
2026-04-17 08:21 42.02587 -6.47838 3977 ft 109 kts 146°
2026-04-17 08:22 42.01951 -6.47297 3985 ft 109 kts 150°
2026-04-17 08:22 42.01265 -6.46857 4004 ft 107 kts 161°
2026-04-17 08:22 42.00549 -6.46659 4025 ft 108 kts 176°
2026-04-17 08:22 41.99800 -6.46509 4024 ft 110 kts 163°
2026-04-17 08:23 41.99135 -6.46013 4033 ft 110 kts 146°
2026-04-17 08:23 41.98532 -6.45376 4001 ft 112 kts 140°
2026-04-17 08:23 41.97969 -6.44672 3996 ft 111 kts 137°
2026-04-17 08:23 41.97448 -6.43905 3966 ft 112 kts 136°
2026-04-17 08:24 41.96882 -6.43194 3945 ft 111 kts 141°
2026-04-17 08:24 41.96276 -6.42553 3911 ft 112 kts 147°
2026-04-17 08:24 41.95621 -6.41989 3887 ft 111 kts 149°
2026-04-17 08:24 41.94974 -6.41439 3894 ft 109 kts 149°
2026-04-17 08:25 41.94335 -6.40896 3896 ft 108 kts 149°
2026-04-17 08:25 41.93702 -6.40351 3896 ft 108 kts 149°
2026-04-17 08:25 41.93071 -6.39806 3896 ft 108 kts 149°
2026-04-17 08:25 41.92435 -6.39265 3896 ft 109 kts 149°
2026-04-17 08:26 41.91796 -6.38720 3894 ft 108 kts 149°
2026-04-17 08:26 41.91201 -6.38104 3891 ft 108 kts 141°
2026-04-17 08:26 41.90634 -6.37451 3893 ft 107 kts 141°
2026-04-17 08:26 41.90063 -6.36793 3896 ft 109 kts 141°
2026-04-17 08:27 41.89485 -6.36131 3893 ft 109 kts 141°
2026-04-17 08:27 41.88909 -6.35469 3894 ft 109 kts 141°
2026-04-17 08:27 41.88332 -6.34801 3894 ft 110 kts 140°
2026-04-17 08:27 41.87754 -6.34133 3892 ft 109 kts 141°
2026-04-17 08:28 41.87184 -6.33466 3891 ft 108 kts 140°
2026-04-17 08:28 41.86615 -6.32801 3893 ft 109 kts 141°
2026-04-17 08:28 41.86040 -6.32141 3892 ft 108 kts 144°
2026-04-17 08:28 41.85631 -6.31760 3891 ft 108 kts 147°
2026-04-17 08:29 41.85011 -6.31202 3889 ft 106 kts 148°
2026-04-17 08:29 41.84391 -6.30654 3895 ft 107 kts 148°
2026-04-17 08:29 41.83759 -6.30099 3898 ft 109 kts 148°
2026-04-17 08:29 41.83125 -6.29541 3893 ft 108 kts 148°
2026-04-17 08:30 41.82498 -6.28994 3888 ft 107 kts 148°
2026-04-17 08:30 41.81887 -6.28446 3880 ft 104 kts 142°
2026-04-17 08:30 41.81417 -6.27718 3896 ft 104 kts 132°
2026-04-17 08:30 41.80934 -6.26996 3895 ft 104 kts 133°
2026-04-17 08:31 41.80451 -6.26273 3899 ft 105 kts 133°
2026-04-17 08:31 41.79966 -6.25542 3896 ft 105 kts 133°
2026-04-17 08:31 41.79486 -6.24809 3893 ft 104 kts 133°
2026-04-17 08:31 41.79015 -6.24088 3872 ft 102 kts 133°
2026-04-17 08:32 41.78547 -6.23376 3847 ft 101 kts 133°
2026-04-17 08:32 41.78055 -6.22675 3830 ft 105 kts 135°
2026-04-17 08:32 41.77532 -6.21968 3807 ft 109 kts 136°
2026-04-17 08:32 41.77001 -6.21248 3783 ft 109 kts 136°
2026-04-17 08:33 41.76468 -6.20520 3762 ft 110 kts 136°
2026-04-17 08:33 41.75919 -6.19777 3743 ft 113 kts 136°
2026-04-17 08:33 41.75368 -6.19034 3720 ft 112 kts 135°
2026-04-17 08:33 41.74816 -6.18292 3692 ft 113 kts 135°
2026-04-17 08:34 41.74263 -6.17561 3670 ft 111 kts 136°
2026-04-17 08:34 41.73712 -6.16824 3644 ft 112 kts 136°
2026-04-17 08:34 41.73157 -6.16085 3622 ft 113 kts 136°
2026-04-17 08:34 41.72603 -6.15340 3593 ft 112 kts 135°
2026-04-17 08:35 41.72053 -6.14603 3568 ft 112 kts 135°
2026-04-17 08:35 41.71498 -6.13861 3541 ft 113 kts 135°
2026-04-17 08:35 41.70947 -6.13118 3517 ft 112 kts 135°
2026-04-17 08:35 41.70394 -6.12378 3498 ft 111 kts 135°
2026-04-17 08:36 41.69853 -6.11653 3498 ft 109 kts 135°
2026-04-17 08:36 41.69316 -6.10936 3496 ft 108 kts 135°
2026-04-17 08:36 41.68792 -6.10228 3488 ft 105 kts 135°
2026-04-17 08:36 41.68278 -6.09534 3473 ft 106 kts 135°
2026-04-17 08:37 41.67754 -6.08830 3453 ft 108 kts 135°
2026-04-17 08:37 41.67227 -6.08116 3429 ft 108 kts 135°
2026-04-17 08:37 41.66709 -6.07402 3401 ft 106 kts 135°
2026-04-17 08:37 41.66191 -6.06690 3375 ft 107 kts 135°
2026-04-17 08:38 41.65670 -6.05971 3352 ft 108 kts 135°
2026-04-17 08:38 41.65141 -6.05246 3325 ft 109 kts 135°
2026-04-17 08:38 41.64619 -6.04528 3304 ft 105 kts 135°
2026-04-17 08:38 41.64110 -6.03834 3305 ft 105 kts 135°
2026-04-17 08:39 41.63599 -6.03133 3311 ft 106 kts 135°
2026-04-17 08:39 41.63083 -6.02426 3305 ft 106 kts 135°
2026-04-17 08:39 41.62574 -6.01728 3301 ft 104 kts 135°
2026-04-17 08:39 41.62031 -6.01112 3303 ft 103 kts 148°
2026-04-17 08:40 41.61399 -6.00647 3302 ft 103 kts 151°
2026-04-17 08:40 41.60766 -6.00206 3300 ft 102 kts 151°
2026-04-17 08:40 41.60139 -5.99763 3300 ft 102 kts 152°
2026-04-17 08:40 41.59489 -5.99339 3307 ft 105 kts 158°
2026-04-17 08:41 41.58783 -5.99023 3308 ft 109 kts 163°
2026-04-17 08:41 41.58047 -5.98744 3302 ft 110 kts 163°
2026-04-17 08:41 41.57315 -5.98474 3304 ft 109 kts 163°
2026-04-17 08:41 41.56589 -5.98215 3301 ft 107 kts 163°
2026-04-17 08:42 41.55875 -5.97954 3295 ft 106 kts 163°
2026-04-17 08:42 41.55164 -5.97685 3292 ft 106 kts 163°
2026-04-17 08:42 41.54460 -5.97428 3294 ft 105 kts 163°
2026-04-17 08:42 41.53756 -5.97164 3291 ft 104 kts 163°
2026-04-17 08:43 41.53068 -5.96903 3291 ft 100 kts 162°
2026-04-17 08:43 41.52401 -5.96657 3289 ft 100 kts 163°
2026-04-17 08:43 41.51726 -5.96408 3297 ft 101 kts 163°
2026-04-17 08:43 41.51058 -5.96154 3323 ft 101 kts 163°
2026-04-17 08:44 41.50385 -5.95893 3355 ft 100 kts 163°
2026-04-17 08:44 41.49709 -5.95628 3378 ft 100 kts 163°
2026-04-17 08:44 41.49037 -5.95365 3389 ft 102 kts 163°
2026-04-17 08:44 41.48360 -5.95101 3397 ft 103 kts 163°
2026-04-17 08:45 41.47678 -5.94835 3423 ft 101 kts 162°
2026-04-17 08:45 41.47003 -5.94570 3446 ft 101 kts 163°
2026-04-17 08:45 41.46332 -5.94298 3470 ft 101 kts 162°
2026-04-17 08:45 41.45647 -5.94024 3490 ft 102 kts 163°
2026-04-17 08:46 41.44979 -5.93754 3493 ft 103 kts 162°
2026-04-17 08:46 41.44289 -5.93479 3497 ft 104 kts 162°
2026-04-17 08:46 41.43593 -5.93194 3494 ft 105 kts 162°
2026-04-17 08:46 41.42907 -5.92912 3491 ft 102 kts 162°
2026-04-17 08:47 41.42226 -5.92639 3495 ft 102 kts 163°
2026-04-17 08:47 41.41540 -5.92363 3496 ft 103 kts 162°
2026-04-17 08:47 41.40857 -5.92086 3496 ft 102 kts 162°
2026-04-17 08:47 41.40175 -5.91806 3496 ft 103 kts 162°
2026-04-17 08:48 41.39480 -5.91527 3494 ft 105 kts 161°
2026-04-17 08:48 41.38840 -5.91073 3496 ft 104 kts 149°
2026-04-17 08:48 41.38216 -5.90570 3499 ft 106 kts 149°
2026-04-17 08:48 41.37598 -5.90052 3494 ft 104 kts 148°
2026-04-17 08:49 41.36987 -5.89536 3496 ft 104 kts 148°
2026-04-17 08:49 41.36387 -5.89023 3493 ft 104 kts 147°
2026-04-17 08:49 41.35777 -5.88500 3491 ft 103 kts 147°
2026-04-17 08:49 41.35177 -5.87984 3492 ft 103 kts 147°
2026-04-17 08:50 41.34572 -5.87467 3496 ft 104 kts 147°
2026-04-17 08:50 41.33964 -5.86944 3498 ft 104 kts 147°
2026-04-17 08:50 41.33351 -5.86419 3497 ft 106 kts 148°
2026-04-17 08:50 41.32735 -5.85890 3494 ft 104 kts 147°
2026-04-17 08:51 41.32136 -5.85375 3491 ft 100 kts 147°
2026-04-17 08:51 41.31557 -5.84878 3488 ft 98 kts 147°
2026-04-17 08:51 41.30987 -5.84388 3493 ft 98 kts 146°
2026-04-17 08:51 41.30407 -5.83891 3495 ft 100 kts 146°
2026-04-17 08:52 41.29812 -5.83383 3511 ft 104 kts 147°
2026-04-17 08:52 41.29199 -5.82858 3477 ft 107 kts 147°
2026-04-17 08:52 41.28570 -5.82319 3480 ft 107 kts 147°
2026-04-17 08:52 41.27959 -5.81795 3523 ft 101 kts 147°
2026-04-17 08:53 41.27387 -5.81303 3544 ft 96 kts 146°
2026-04-17 08:53 41.26841 -5.80835 3551 ft 93 kts 147°
2026-04-17 08:53 41.26285 -5.80359 3564 ft 97 kts 147°
2026-04-17 08:53 41.25701 -5.79861 3565 ft 101 kts 147°
2026-04-17 08:54 41.25104 -5.79350 3565 ft 103 kts 147°
2026-04-17 08:54 41.24493 -5.78828 3563 ft 106 kts 147°
2026-04-17 08:54 41.23871 -5.78297 3565 ft 106 kts 148°
2026-04-17 08:54 41.23257 -5.77770 3563 ft 104 kts 146°
2026-04-17 08:55 41.22650 -5.77251 3562 ft 103 kts 146°
2026-04-17 08:55 41.22043 -5.76733 3564 ft 104 kts 147°
2026-04-17 08:55 41.21434 -5.76213 3566 ft 104 kts 147°
2026-04-17 08:55 41.20826 -5.75694 3566 ft 104 kts 147°
2026-04-17 08:56 41.20215 -5.75172 3559 ft 104 kts 148°
2026-04-17 08:56 41.19608 -5.74652 3555 ft 103 kts 149°
2026-04-17 08:56 41.19002 -5.74135 3554 ft 104 kts 148°
2026-04-17 08:56 41.18392 -5.73613 3554 ft 104 kts 148°
2026-04-17 08:57 41.17783 -5.73095 3561 ft 104 kts 149°
2026-04-17 08:57 41.17170 -5.72573 3564 ft 105 kts 148°
2026-04-17 08:57 41.16550 -5.72043 3566 ft 106 kts 149°
2026-04-17 08:57 41.15926 -5.71512 3566 ft 107 kts 149°
2026-04-17 08:58 41.15300 -5.70977 3559 ft 107 kts 148°
2026-04-17 08:58 41.14679 -5.70445 3558 ft 106 kts 147°
2026-04-17 08:58 41.14056 -5.69916 3558 ft 107 kts 147°
2026-04-17 08:58 41.13424 -5.69399 3559 ft 107 kts 155°
2026-04-17 08:59 41.12684 -5.69250 3565 ft 108 kts 172°
2026-04-17 08:59 41.11938 -5.69122 3567 ft 108 kts 172°
2026-04-17 08:59 41.11192 -5.69000 3566 ft 108 kts 171°
2026-04-17 08:59 41.10444 -5.68878 3566 ft 109 kts 172°
2026-04-17 09:00 41.09694 -5.68754 3564 ft 108 kts 171°
2026-04-17 09:00 41.08954 -5.68632 3560 ft 106 kts 172°
2026-04-17 09:00 41.08226 -5.68511 3560 ft 105 kts 172°
2026-04-17 09:00 41.07498 -5.68391 3560 ft 106 kts 171°
2026-04-17 09:01 41.06762 -5.68271 3560 ft 106 kts 171°
2026-04-17 09:01 41.06031 -5.68151 3558 ft 105 kts 172°
2026-04-17 09:01 41.05304 -5.68030 3558 ft 106 kts 172°
2026-04-17 09:01 41.04574 -5.67907 3557 ft 106 kts 172°
2026-04-17 09:02 41.03851 -5.67791 3554 ft 104 kts 171°
2026-04-17 09:02 41.03140 -5.67672 3552 ft 103 kts 172°
2026-04-17 09:02 41.02428 -5.67556 3554 ft 104 kts 172°
2026-04-17 09:02 41.01705 -5.67437 3552 ft 105 kts 172°
2026-04-17 09:03 41.00983 -5.67314 3553 ft 105 kts 169°
2026-04-17 09:03 41.00388 -5.66808 3553 ft 105 kts 127°
2026-04-17 09:03 41.00122 -5.65902 3553 ft 106 kts 109°
2026-04-17 09:03 40.99898 -5.64974 3555 ft 106 kts 109°
2026-04-17 09:04 40.99678 -5.64045 3552 ft 106 kts 109°
2026-04-17 09:04 40.99458 -5.63117 3553 ft 106 kts 110°
2026-04-17 09:04 40.99235 -5.62180 3581 ft 107 kts 109°
2026-04-17 09:04 40.99013 -5.61248 3582 ft 107 kts 110°
2026-04-17 09:05 40.98785 -5.60300 3586 ft 109 kts 110°
2026-04-17 09:05 40.98555 -5.59338 3586 ft 109 kts 110°
2026-04-17 09:05 40.98326 -5.58380 3587 ft 109 kts 110°
2026-04-17 09:05 40.98096 -5.57421 3587 ft 109 kts 110°
2026-04-17 09:06 40.97941 -5.56773 3587 ft 110 kts 110°
2026-04-17 09:06 40.97622 -5.55505 3587 ft 109 kts 115°
2026-04-17 09:06 40.97323 -5.54587 3585 ft 108 kts 115°
2026-04-17 09:06 40.97032 -5.53679 3577 ft 105 kts 115°
2026-04-17 09:07 40.96993 -5.52789 3571 ft 101 kts 56°
2026-04-17 09:07 40.97363 -5.52433 3586 ft 99 kts 28°
2026-04-17 09:07 40.97982 -5.52040 3596 ft 99 kts 26°
2026-04-17 09:07 40.98567 -5.51573 3565 ft 97 kts 54°
2026-04-17 09:08 40.98646 -5.50760 3421 ft 92 kts 118°
2026-04-17 09:08 40.98306 -5.50056 3225 ft 90 kts 127°
2026-04-17 09:08 40.97944 -5.49375 3061 ft 89 kts 126°
2026-04-17 09:08 40.97453 -5.48925 2937 ft 89 kts 172°
2026-04-17 09:09 40.96839 -5.49075 2773 ft 92 kts 205°
2026-04-17 09:09 40.96285 -5.49458 2652 ft 87 kts 207°
2026-04-17 09:09 40.95776 -5.49814 2594 ft 72 kts 207°
2026-04-17 09:09 40.95395 -5.50081 2588 ft 53 kts 206°
2026-04-17 09:10 40.94867 -5.50443 2587 ft 32 kts 208°
2026-04-17 09:10 40.94730 -5.50468 2589 ft 15 kts 126°
2026-04-17 09:10 40.94695 -5.50368 2594 ft 10 kts 117°
2026-04-17 09:11 40.94629 -5.50340 2594 ft 12 kts 202°
2026-04-17 09:11 40.94528 -5.50411 2592 ft 19 kts 208°
2026-04-17 09:11 40.94409 -5.50496 2593 ft 20 kts 208°
2026-04-17 09:11 40.94269 -5.50595 2592 ft 22 kts 208°
2026-04-17 09:12 40.94158 -5.50638 2594 ft 16 kts 143°
2026-04-17 09:12 40.94097 -5.50504 2592 ft 16 kts 121°
2026-04-17 09:12 40.94115 -5.50393 2590 ft 15 kts 32°
2026-04-17 09:12 40.94211 -5.50323 2594 ft 15 kts 28°
2026-04-17 09:13 40.94307 -5.50255 2590 ft 15 kts 28°
2026-04-17 09:13 40.94347 -5.50181 2594 ft 11 kts 116°
2026-04-17 09:13 40.94313 -5.50129 2594 ft 4 kts 208°
2026-04-17 09:13 40.94313 -5.50130 2594 ft 0 kts 206°